Le nostre stazioni meteo in Italia

Pubblicità
Il mio iltempo24.it
Roma/Urbe, Italia (16235): Temperatura & dewpoint: 13.04.2019 17:00:00 - 19.04.2019 17:00:00 (CEST)Roma/Urbe, Italia (16235): velocità del vento: 13.04.2019 17:00:00 - 19.04.2019 17:00:00 (CEST)Roma/Urbe, Italia (16235): direzione del vento: 13.04.2019 17:00:00 - 19.04.2019 17:00:00 (CEST)Roma/Urbe, Italia (16235): visibility: 13.04.2019 17:00:00 - 19.04.2019 17:00:00 (CEST)
Data & Tempo tt [°C] td [°C] ff [km/h] ff [kn] dd vv [km]
19.04.2019 17:00:00 20,0 5,0 16 9 O 10
19.04.2019 16:00:00 21,0 6,0 18 10 O 10
19.04.2019 15:00:00 21,0 6,0 18 10 SO 10
19.04.2019 14:00:00 23,0 6,0 9 5 NO 10
19.04.2019 13:00:00 22,0 6,0 9 5 ONO 10
19.04.2019 12:00:00 21,0 5,0 5 3 - 10
19.04.2019 11:00:00 19,0 6,0 9 5 N 10
19.04.2019 10:00:00 17,0 7,0 9 5 N 10
19.04.2019 09:00:00 13,0 10,0 2 1 - 10
19.04.2019 08:00:00 11,0 10,0 5 3 - 10
19.04.2019 07:00:00 - - - - - -
19.04.2019 06:00:00 - - - - - -
19.04.2019 05:00:00 - - - - - -
19.04.2019 04:00:00 - - - - - -
19.04.2019 03:00:00 - - - - - -
19.04.2019 02:00:00 - - - - - -
19.04.2019 01:00:00 - - - - - -
19.04.2019 00:00:00 - - - - - -
18.04.2019 23:00:00 - - - - - -
18.04.2019 22:00:00 - - - - - -
18.04.2019 21:00:00 - - - - - -
18.04.2019 20:00:00 17,0 9,0 5 3 - 10
18.04.2019 19:00:00 19,0 6,0 15 8 O 10
18.04.2019 18:00:00 20,0 7,0 15 8 SO 10
18.04.2019 17:00:00 21,0 9,0 15 8 OSO 10
18.04.2019 16:00:00 21,0 8,0 16 9 SO 10
18.04.2019 15:00:00 22,0 9,0 13 7 OSO 10
18.04.2019 14:00:00 21,0 9,0 11 6 O 10
18.04.2019 13:00:00 21,0 4,0 5 3 - 10
18.04.2019 12:00:00 20,0 9,0 0 0 N 10
18.04.2019 11:00:00 - - 8 4 N 10
18.04.2019 10:00:00 15,0 10,0 8 4 N 10
18.04.2019 09:00:00 12,0 11,0 5 3 - 10
18.04.2019 08:00:00 9,0 9,0 4 2 - 8
18.04.2019 07:00:00 - - - - - -
18.04.2019 06:00:00 - - - - - -
18.04.2019 05:00:00 - - - - - -
18.04.2019 04:00:00 - - - - - -
18.04.2019 03:00:00 - - - - - -
18.04.2019 02:00:00 - - - - - -
18.04.2019 01:00:00 - - - - - -
18.04.2019 00:00:00 - - - - - -
17.04.2019 23:00:00 - - - - - -
17.04.2019 22:00:00 - - - - - -
17.04.2019 21:00:00 - - - - - -
17.04.2019 20:00:00 16,0 9,0 11 6 OSO 10
17.04.2019 19:00:00 17,0 10,0 15 8 OSO 10
17.04.2019 18:00:00 18,0 10,0 13 7 O 10
17.04.2019 17:00:00 19,0 10,0 18 10 OSO 10
17.04.2019 16:00:00 20,0 11,0 15 8 OSO 10
17.04.2019 15:00:00 20,0 12,0 13 7 ONO 10
17.04.2019 14:00:00 20,0 8,0 5 3 - 10
17.04.2019 13:00:00 19,0 10,0 9 5 NO 10
17.04.2019 12:00:00 18,0 9,0 4 2 - 10
17.04.2019 11:00:00 16,0 10,0 2 1 - 10
17.04.2019 10:00:00 12,0 10,0 4 2 - 10
17.04.2019 09:00:00 9,0 9,0 2 1 - 8
17.04.2019 08:00:00 7,0 7,0 4 2 - 8
17.04.2019 07:00:00 - - - - - -
17.04.2019 06:00:00 - - - - - -
17.04.2019 05:00:00 - - - - - -
17.04.2019 04:00:00 - - - - - -
17.04.2019 03:00:00 - - - - - -
17.04.2019 02:00:00 - - - - - -
17.04.2019 01:00:00 - - - - - -
17.04.2019 00:00:00 - - - - - -
16.04.2019 23:00:00 - - - - - -
16.04.2019 22:00:00 - - - - - -
16.04.2019 21:00:00 - - - - - -
16.04.2019 20:00:00 14,0 9,0 5 3 - 10
16.04.2019 19:00:00 15,0 9,0 13 7 O 10
16.04.2019 18:00:00 16,0 9,0 16 9 O 10
16.04.2019 17:00:00 18,0 6,0 18 10 SO 10
16.04.2019 16:00:00 18,0 9,0 18 10 SO 10
16.04.2019 15:00:00 16,0 9,0 16 9 SO 10
16.04.2019 14:00:00 19,0 9,0 9 5 SSO 10
16.04.2019 13:00:00 18,0 10,0 15 8 SO 10
16.04.2019 12:00:00 19,0 10,0 8 4 SO 10
16.04.2019 11:00:00 17,0 10,0 0 0 N 10
16.04.2019 10:00:00 15,0 10,0 8 4 N 10
16.04.2019 09:00:00 12,0 9,0 5 3 - 10
16.04.2019 08:00:00 9,0 8,0 5 3 - 10
16.04.2019 07:00:00 - - - - - -
16.04.2019 06:00:00 - - - - - -
16.04.2019 05:00:00 - - - - - -
16.04.2019 04:00:00 - - - - - -
16.04.2019 03:00:00 - - - - - -
16.04.2019 02:00:00 - - - - - -
16.04.2019 01:00:00 - - - - - -
16.04.2019 00:00:00 - - - - - -
15.04.2019 23:00:00 - - - - - -
15.04.2019 22:00:00 - - - - - -
15.04.2019 21:00:00 - - - - - -
15.04.2019 20:00:00 16,0 8,0 13 7 N 10
15.04.2019 19:00:00 18,0 9,0 15 8 NNO 10
15.04.2019 18:00:00 19,0 7,0 15 8 N 10
15.04.2019 17:00:00 20,0 8,0 15 8 NNE 10
15.04.2019 16:00:00 20,0 7,0 15 8 N 10
15.04.2019 15:00:00 19,0 8,0 16 9 N 10
15.04.2019 14:00:00 19,0 10,0 15 8 NO 10
15.04.2019 13:00:00 18,0 8,0 16 9 N 10
15.04.2019 12:00:00 17,0 8,0 16 9 N 10
15.04.2019 11:00:00 16,0 8,0 21 11 N 10
15.04.2019 10:00:00 14,0 8,0 22 12 N 10
15.04.2019 09:00:00 12,0 9,0 9 5 N 10
15.04.2019 08:00:00 10,0 9,0 5 3 - 10
15.04.2019 07:00:00 - - - - - -
15.04.2019 06:00:00 - - - - - -
15.04.2019 05:00:00 - - - - - -
15.04.2019 04:00:00 - - - - - -
15.04.2019 03:00:00 - - - - - -
15.04.2019 02:00:00 - - - - - -
15.04.2019 01:00:00 - - - - - -
15.04.2019 00:00:00 - - - - - -
14.04.2019 23:00:00 - - - - - -
14.04.2019 22:00:00 - - - - - -
14.04.2019 21:00:00 - - - - - -
14.04.2019 20:00:00 11,0 6,0 9 5 E 10
14.04.2019 19:00:00 11,0 7,0 18 10 OSO 7
14.04.2019 18:00:00 15,0 6,0 15 8 SSO 10
14.04.2019 17:00:00 16,0 7,0 21 11 SSO 10
14.04.2019 16:00:00 16,0 8,0 21 11 SO 10
14.04.2019 15:00:00 16,0 10,0 21 11 S 10
14.04.2019 14:00:00 16,0 11,0 18 10 SSO 10
14.04.2019 13:00:00 16,0 11,0 13 7 S 10
14.04.2019 12:00:00 16,0 10,0 13 7 S 10
14.04.2019 11:00:00 15,0 11,0 11 6 SSE 10
14.04.2019 10:00:00 13,0 11,0 0 0 N 10
14.04.2019 09:00:00 11,0 11,0 4 2 - 10
14.04.2019 08:00:00 10,0 10,0 0 0 N 10
14.04.2019 07:00:00 - - - - - -
14.04.2019 06:00:00 - - - - - -
14.04.2019 05:00:00 - - - - - -
14.04.2019 04:00:00 - - - - - -
14.04.2019 03:00:00 - - - - - -
14.04.2019 02:00:00 - - - - - -
14.04.2019 01:00:00 - - - - - -
14.04.2019 00:00:00 - - - - - -
13.04.2019 23:00:00 - - - - - -
13.04.2019 22:00:00 - - - - - -
13.04.2019 21:00:00 - - - - - -
13.04.2019 20:00:00 11,0 11,0 8 4 SSO 10
13.04.2019 19:00:00 14,0 9,0 9 5 E 10
13.04.2019 18:00:00 14,0 10,0 15 8 E 10
13.04.2019 17:00:00 16,0 11,0 11 6 SO 10

tt = Temperatura
td = dewpoint
ff = velocità del vento
dd = direzione del vento
vv = visibility

Stazioni seguenti

WeatherPro
AMSI
MeteoEarth